Leesburg, Kentucky
Current Conditions -  °F | °C
As of 7:55 AM on Friday 24 Oct 2014 (Local Time) from KIOB Reporting Station
Haze Haze  
Wind Chill: 37°   Ceiling: Unl
Heat Index: 37°   Visibility: 5mi
Dew Point: 37°   Wind: 0mph
Humidity: 100%   Direction: NA
Pressure: 30.15"   Gusts: NA
Location:  38.4145°N, 84.2859°W
Report Text: KIOB 241155Z AUTO 00000KT 5SM BR CLR 03/03 A3015 RMK AO2
Loading
Personal Weather Stations






























Interactive Weather Map
Tropical Storm Tracking
New forecast layout! Learn more

10-Day Weather Forecast

Advertisements
Track Severe Weather on mobile